This demonstration page uses our WeatherBlox Daily Observations layout. Learn more.

Left ArrowRight Arrow

44.8408, -93.29828

Hourly Observations for July 13, 2022

Temp ( °F °C ) Dew Point ( °F °C ) Humidity (%) Winds ( mph kmh ) Pressure ( in mb ) Visibility ( mi km ) Precip ( " mm )
12:53 am 00:53 Clear 63 17.2 61 16.1 93 93 Calm 29.94 1014 9 14 0.00 0.00
1:53 am 01:53 Clear 64 17.8 61 16.1 90 90 W 3 6 29.94 1014 10 16 0.00 0.00
2:53 am 02:53 Clear 62 16.7 60 15.6 93 93 NW 5 7 29.95 1014 10 16 0.00 0.00
3:53 am 03:53 Clear 62 16.7 61 16.1 96 96 NNW 5 7 29.96 1015 10 16 0.00 0.00
4:53 am 04:53 Clear 63 17.2 61 16.1 93 93 Calm 29.98 1015 10 16 0.00 0.00
5:16 am 05:16 Mostly Cloudy with Mist and Fog 63 17.2 61 16.1 93 93 NNE 5 7 29.99 1015 6 10 0.00 0.00
5:46 am 05:46 Partly Cloudy 63 17.2 61 16.1 93 93 NNE 5 7 30.00 1016 10 16 0.00 0.00
5:53 am 05:53 Mostly Sunny 62 16.7 61 16.1 96 96 NNE 5 7 30.00 1016 10 16 0.00 0.00
6:53 am 06:53 Sunny 63 17.2 60 15.6 90 90 N 5 7 30.02 1017 10 16 0.00 0.00
7:53 am 07:53 Mostly Sunny 66 18.9 61 16.1 84 84 Calm 30.04 1017 10 16 0.00 0.00
8:53 am 08:53 Mostly Sunny 69 20.6 60 15.6 73 73 N 7 11 30.05 1018 10 16 0.00 0.00
9:53 am 09:53 Mostly Sunny 72 22.2 60 15.6 66 66 N 7 11 30.06 1018 10 16 0.00 0.00
10:53 am 10:53 Partly Cloudy 74 23.3 59 15 60 60 NE 6 9 30.06 1018 10 16 0.00 0.00
11:53 am 11:53 Partly Cloudy 75 23.9 59 15 58 58 undefined N/A 30.07 1018 10 16 0.00 0.00
12:53 pm 12:53 Mostly Sunny 75 23.9 58 14.4 55 55 NNE 8 13 30.07 1018 10 16 0.00 0.00
1:53 pm 13:53 Mostly Sunny 76 24.4 57 13.9 52 52 VRB 7 11 30.07 1018 10 16 0.00 0.00
2:53 pm 14:53 Partly Cloudy 78 25.6 58 14.4 50 50 NE 9 15 30.06 1018 10 16 0.00 0.00
3:53 pm 15:53 Partly Cloudy 79 26.1 58 14.4 49 49 E 5 7 30.06 1018 10 16 0.00 0.00
4:53 pm 16:53 Partly Cloudy 79 26.1 58 14.4 49 49 NNE 10 17 30.06 1018 10 16 0.00 0.00
5:53 pm 17:53 Partly Cloudy 78 25.6 57 13.9 48 48 NE 7 11 30.05 1018 10 16 0.00 0.00
6:53 pm 18:53 Partly Cloudy 78 25.6 58 14.4 50 50 NNE 9 15 30.05 1018 10 16 0.00 0.00
7:53 pm 19:53 Mostly Sunny 75 23.9 58 14.4 55 55 NNE 8 13 30.06 1018 10 16 0.00 0.00
8:53 pm 20:53 Sunny 73 22.8 58 14.4 59 59 NNE 8 13 30.06 1018 10 16 0.00 0.00
9:53 pm 21:53 Clear 71 21.7 58 14.4 63 63 NE 8 13 30.08 1019 10 16 0.00 0.00
10:53 pm 22:53 Clear 69 20.6 58 14.4 68 68 NE 5 7 30.09 1019 10 16 0.00 0.00
11:53 pm 23:53 Clear 69 20.6 58 14.4 68 68 NE 3 6 30.09 1019 10 16 0.00 0.00

Powered by AerisWeather